Date,TemperatureHighF,TemperatureAvgF,TemperatureLowF,DewpointHighF,DewpointAvgF,DewpointLowF,HumidityHigh,HumidityAvg,HumidityLow,PressureMaxIn,PressureMinIn,WindSpeedMaxMPH,WindSpeedAvgMPH,GustSpeedMaxMPH,PrecipitationSumIn
2013-10-1,86,68,52,56,45,38,87,47,20,29.94,29.85,15,4,17,0.00
2013-10-2,80,64,56,59,54,47,97,76,35,29.97,29.86,13,3,18,0.00
2013-10-3,76,64,55,58,54,50,91,74,45,29.95,29.80,12,3,15,0.00
2013-10-4,84,68,52,57,32,8,94,43,6,30.08,29.89,15,3,23,0.00
2013-10-5,86,71,52,30,17,6,36,15,5,30.15,30.04,19,3,19,0.00
2013-10-6,91,69,46,28,20,8,39,19,5,30.12,29.97,8,1,11,0.00
2013-10-7,87,68,52,45,29,15,53,27,8,30.00,29.87,13,2,18,0.00
2013-10-8,75,61,46,54,44,36,81,57,29,29.94,29.81,17,5,18,0.00
2013-10-9,59,54,49,50,48,45,93,82,61,29.85,29.73,20,6,25,0.41
2013-10-10,63,54,44,50,46,42,95,77,54,30.05,29.81,8,0,9,0.01
2013-10-11,76,59,44,51,46,40,95,68,27,30.08,29.93,7,1,10,0.00
2013-10-12,78,62,47,56,48,42,93,68,29,29.99,29.89,10,2,12,0.00
2013-10-13,73,60,52,53,52,49,94,77,44,30.04,29.93,14,3,17,0.00
2013-10-14,82,63,46,53,40,29,95,54,15,30.06,29.93,9,1,11,0.00
2013-10-15,82,65,47,42,34,26,64,37,13,30.01,29.89,7,1,9,0.00
2013-10-16,82,65,48,40,30,21,65,32,11,30.10,29.99,7,1,10,0.00
2013-10-17,83,63,45,40,33,26,59,36,13,30.06,29.92,8,1,12,0.00
2013-10-18,88,66,46,47,36,23,71,41,10,30.03,29.93,7,1,9,0.00
2013-10-19,89,67,46,43,33,15,65,36,7,30.05,29.94,8,0,22,0.00
2013-10-20,86,65,46,52,39,28,69,45,14,30.00,29.88,10,1,11,0.00
2013-10-21,87,64,46,52,43,32,83,53,15,29.99,29.89,6,1,9,0.00
2013-10-22,89,66,46,56,45,24,86,58,10,30.00,29.88,12,2,16,0.00
2013-10-23,74,58,50,57,52,47,96,84,52,29.99,29.89,9,2,12,0.00
2013-10-24,71,59,53,54,53,50,92,79,55,30.07,29.96,6,0,11,0.00
2013-10-25,79,60,48,58,50,46,97,73,32,30.14,30.03,9,0,11,0.00
2013-10-26,91,67,47,50,42,30,79,47,12,30.12,29.96,8,0,11,0.00
2013-10-27,82,64,49,54,44,36,88,53,20,30.00,29.79,13,4,17,0.00
2013-10-28,60,56,48,53,48,43,93,78,59,29.95,29.82,14,6,19,0.00
2013-10-29,63,52,42,48,43,40,95,75,46,30.04,29.95,7,0,11,0.00
2013-10-30,71,55,42,48,43,37,94,67,30,30.09,30.00,6,0,10,0.00
2013-10-31,78,58,39,43,33,23,89,49,13,30.13,30.00,9,1,13,0.00